GFSNE_sfc_thetae_000.txt.gz
Theta_e
324 325 326 326 328 329 327 328 322 317 318 324 324 330 331 332 331 330 329 325 326 322 322 322 323 324 325 325 325 325 325 325 325 326 327 329 329 328
325 327 326 327 327 327 327 327 324 323 317 325 325 328 330 330 331 328 327 326 323 322 322 321 320 320 321 321 321 322 323 322 322 322 323 324 325 327
326 326 325 326 327 326 327 327 324 325 321 324 327 328 327 327 327 326 327 326 324 320 321 319 317 317 318 318 318 319 319 319 319 320 320 321 321 322
325 326 324 325 326 325 327 325 325 326 324 320 323 324 325 325 324 323 324 324 323 320 319 318 316 315 315 314 313 313 312 312 312 313 314 315 316 317
326 325 325 326 325 325 326 325 325 326 325 323 321 323 323 324 321 321 320 320 319 321 317 315 314 313 313 312 311 310 309 307 306 307 308 309 309 309
325 325 326 325 325 324 324 324 325 324 324 323 321 319 320 320 322 320 320 320 318 317 316 314 313 312 311 312 313 313 310 306 304 304 304 304 304 304
325 325 325 324 321 323 325 324 325 323 322 321 319 318 317 318 319 318 319 317 317 319 317 314 315 315 314 311 312 310 305 304 303 303 303 302 300 301
323 323 323 319 316 314 315 316 321 323 320 322 319 319 318 320 316 317 316 316 314 317 317 313 315 311 312 312 306 304 303 303 302 302 301 300 299 298
324 325 325 323 322 322 312 312 313 313 315 322 321 321 319 319 317 314 315 315 316 317 319 312 312 309 309 308 303 302 302 301 301 301 300 299 297 296
326 326 325 325 321 323 324 323 323 323 323 322 323 322 324 321 321 320 318 317 316 315 318 312 310 309 308 310 303 302 301 300 300 300 299 298 296 296
326 324 325 325 304 308 324 320 315 313 304 307 306 304 303 304 312 319 318 320 317 314 312 312 309 309 309 307 306 302 300 300 299 299 298 298 297 296
322 322 311 317 300 304 318 315 313 312 311 308 308 307 308 308 305 323 320 317 310 310 313 310 308 307 306 308 305 304 304 299 298 297 297 297 296 299
320 319 320 304 300 298 304 315 312 310 304 307 307 309 311 312 313 316 318 314 310 311 312 311 308 307 304 303 305 302 302 300 299 298 296 295 295 295
318 318 315 299 298 297 303 301 297 303 312 312 312 312 311 310 310 310 312 312 312 313 313 313 306 305 303 300 299 299 298 300 298 297 297 296 295 294
318 311 298 296 295 298 297 296 297 312 314 314 313 312 311 308 308 307 308 308 306 306 308 309 305 303 301 298 296 293 294 296 297 297 296 296 295 296
303 302 299 299 298 301 301 301 308 314 316 314 312 308 306 306 305 306 305 304 302 300 302 303 302 302 298 296 294 292 294 292 296 296 295 294 294 295
301 303 303 303 302 301 301 303 307 312 313 309 307 305 305 304 303 305 305 303 301 299 298 298 299 300 299 297 293 291 292 293 294 293 292 291 292 294
304 304 304 304 304 303 302 301 305 309 311 308 307 306 304 304 303 303 303 301 296 297 295 296 296 295 293 295 294 290 291 291 292 292 291 289 288 291
309 305 306 306 307 306 304 303 304 310 309 307 306 305 304 304 302 302 300 298 296 296 294 295 294 291 288 287 293 292 289 289 289 288 289 288 287 289
305 307 306 306 305 306 305 304 306 307 307 306 304 304 304 302 302 300 297 295 294 293 294 294 293 292 290 290 291 291 288 288 288 287 287 288 289 288
304 305 307 306 304 303 304 305 307 306 306 304 303 303 303 303 301 299 296 292 292 294 292 293 294 287 294 292 288 287 288 288 288 288 287 287 286 287
305 305 307 306 305 302 301 303 306 303 303 303 303 302 302 302 301 298 297 296 296 295 294 293 293 291 289 286 285 284 285 286 288 288 288 287 286 282
307 306 306 307 307 305 304 303 304 304 304 303 302 300 300 300 299 297 296 295 295 294 292 288 287 288 286 284 284 284 283 283 284 285 286 286 286 287

GFSNE_sfc_thetae_003.txt.gz
Theta_e
332 331 331 334 336 339 339 337 331 320 322 324 325 331 332 331 331 331 331 325 325 323 323 322 321 322 325 326 326 327 327 327 327 327 326 327 328 328
332 333 332 335 333 337 333 331 332 325 319 325 326 329 330 331 331 330 330 327 324 323 323 322 321 321 322 322 323 324 324 324 323 323 323 323 323 323
333 328 329 334 332 334 335 330 330 326 321 324 327 328 327 328 328 328 331 329 327 321 322 320 318 318 319 320 320 320 320 320 319 319 318 318 317 318
328 327 328 331 332 334 335 333 333 327 324 321 324 325 325 327 326 328 327 327 328 321 320 318 316 316 316 316 318 314 313 312 311 311 311 312 312 312
330 328 329 329 331 333 333 333 332 327 327 324 322 324 324 325 325 326 325 326 325 323 318 316 315 315 314 313 312 312 309 307 306 307 308 308 308 308
329 330 331 329 332 331 329 331 333 327 327 322 322 321 321 323 323 320 319 324 321 322 316 316 315 312 312 313 313 310 306 304 303 304 303 303 303 304
331 331 332 328 323 323 331 326 330 327 323 321 319 319 318 319 319 324 323 322 323 323 321 322 322 319 314 310 310 309 305 304 303 302 302 300 300 300
330 331 331 324 318 314 314 316 324 326 322 321 320 318 320 325 325 323 322 319 316 326 320 314 316 312 311 311 305 304 303 303 302 302 301 300 299 298
332 331 329 328 327 329 313 313 313 312 317 327 328 326 326 327 327 326 324 322 321 323 318 312 314 310 312 309 304 302 301 301 300 300 299 298 297 296
332 332 331 332 329 329 328 328 327 327 329 333 335 334 334 332 331 328 327 326 325 323 323 311 313 311 311 308 302 301 300 299 299 299 299 298 297 296
330 332 332 330 305 309 327 328 329 325 308 304 305 307 307 309 318 324 320 322 320 321 325 316 314 311 310 308 305 301 300 299 299 298 298 298 296 297
326 325 311 321 300 307 331 329 326 325 326 326 326 315 315 313 309 330 326 323 322 316 320 315 313 310 306 310 307 307 307 300 299 298 298 297 295 302
327 328 327 299 299 303 308 326 322 324 317 328 326 325 325 324 325 328 330 328 322 319 318 316 313 312 309 307 309 304 306 305 304 303 298 296 296 295
325 326 323 301 299 299 309 296 298 310 323 322 322 322 323 322 322 324 324 324 324 323 318 319 310 307 305 303 303 304 304 307 304 303 302 299 297 296
328 315 299 297 296 303 298 296 299 320 323 323 321 318 319 319 320 318 319 317 315 313 313 313 308 308 305 303 300 299 300 304 303 301 301 300 298 299
307 312 305 305 300 309 311 309 322 321 322 321 321 320 318 317 316 314 311 309 306 305 308 309 310 307 301 300 299 298 300 300 301 300 299 299 299 299
314 317 318 320 321 320 320 319 319 321 322 323 321 316 315 314 313 314 312 311 308 305 303 303 306 306 304 303 299 298 299 300 299 298 297 296 297 297
317 318 318 319 319 319 318 317 318 315 322 321 320 317 314 313 312 313 313 312 308 306 303 302 300 299 299 299 297 297 298 297 297 297 297 294 295 296
321 320 320 318 317 317 318 317 317 320 323 321 320 318 316 314 309 311 311 308 305 301 301 300 299 298 296 295 298 291 294 295 295 295 295 294 293 294
320 321 320 321 321 320 319 318 318 318 319 320 319 317 316 313 311 310 308 306 301 298 299 299 297 297 297 296 297 294 288 293 293 293 293 294 295 290
316 318 319 320 320 320 321 321 319 318 317 318 317 316 315 313 311 310 306 295 297 298 298 297 295 287 299 297 294 292 293 288 290 291 290 290 291 293
318 317 316 317 318 319 318 318 318 316 315 316 316 315 315 313 311 306 302 297 297 296 294 295 296 294 292 291 290 289 290 291 290 289 288 286 289 287
321 320 319 318 316 316 316 315 315 316 317 316 315 314 313 311 309 302 299 300 297 295 295 292 292 292 289 287 288 289 287 288 291 291 293 288 286 287

GFSNE_sfc_thetae_006.txt.gz
Theta_e
334 336 338 335 334 345 346 337 330 322 321 324 322 326 327 328 328 328 325 322 324 321 322 323 323 323 325 326 327 327 327 326 326 325 324 324 325 325
332 333 333 334 338 338 338 340 340 328 321 325 324 325 327 328 327 325 327 326 323 322 322 320 319 320 322 323 324 326 326 324 324 324 323 322 321 321
334 332 334 336 338 335 338 337 334 330 322 323 325 327 326 326 327 327 330 327 326 322 323 320 319 319 320 321 322 323 322 320 318 317 316 316 316 315
329 333 333 333 337 338 335 333 330 328 324 321 323 324 324 326 328 327 328 329 329 322 320 318 317 317 318 318 318 316 314 313 313 313 313 313 313 311
333 334 334 336 335 335 335 331 327 327 325 322 321 325 325 327 325 329 328 329 326 322 317 316 316 316 315 314 313 311 309 307 307 308 309 309 309 308
332 334 334 333 335 334 334 333 331 327 326 323 321 321 323 326 326 324 321 323 321 321 317 318 316 313 313 313 311 308 305 304 303 303 303 302 303 303
331 331 331 327 321 328 336 331 332 328 325 322 319 320 320 321 321 324 320 320 323 323 322 322 320 318 313 310 309 307 305 304 303 302 302 300 300 300
332 330 331 326 317 313 315 316 329 329 323 321 319 318 319 322 324 323 322 319 317 327 325 321 319 314 314 313 305 304 303 303 302 301 300 300 299 298
334 333 329 328 326 326 313 313 313 312 319 327 320 319 322 328 329 328 326 322 321 324 322 315 317 314 312 308 303 302 301 301 300 300 299 298 297 296
333 333 333 330 330 331 329 326 327 327 329 328 325 327 335 335 336 332 331 332 328 324 325 314 317 314 312 309 302 301 299 299 299 299 299 298 297 297
333 334 332 333 307 309 331 329 328 322 308 308 312 312 310 312 322 327 326 323 321 323 326 319 317 314 311 308 305 300 299 299 299 299 298 297 296 296
333 333 308 325 302 307 333 331 328 328 327 327 327 319 323 320 310 336 328 323 324 322 327 319 316 314 310 312 309 307 306 300 299 298 298 297 296 303
330 329 327 300 301 305 312 335 328 330 323 329 329 331 333 330 329 332 334 330 325 323 325 323 319 316 317 311 309 308 309 306 308 305 297 297 296 295
330 330 319 297 299 301 309 298 305 316 331 329 327 325 326 327 329 332 335 335 331 329 325 326 320 319 311 308 307 306 308 309 310 309 307 301 298 297
332 313 299 298 298 305 297 297 301 330 330 328 327 328 329 330 333 330 329 325 324 324 321 321 318 315 309 306 304 304 304 306 309 307 305 304 303 303
309 319 313 311 301 314 314 312 325 328 329 327 323 323 325 325 323 323 319 317 314 311 314 315 315 312 306 305 304 303 306 305 307 305 303 304 305 303
325 326 327 328 327 328 328 325 325 325 325 326 324 323 322 322 321 321 318 316 313 308 306 308 312 311 307 307 301 304 305 305 303 302 301 300 303 302
324 326 326 326 325 326 325 324 324 319 324 326 325 323 321 320 319 320 319 318 316 311 307 305 304 302 301 300 297 301 302 300 299 300 300 297 297 301
324 324 323 324 325 325 324 324 323 324 327 325 324 324 322 321 316 318 318 318 315 311 307 306 302 301 297 296 300 290 297 298 297 297 298 297 297 299
323 322 321 322 321 321 322 322 322 323 324 325 324 325 323 321 317 318 318 316 311 306 303 301 300 299 298 298 298 296 288 293 293 295 296 296 297 293
323 322 323 322 323 322 321 320 321 321 322 324 324 324 323 321 318 318 317 303 301 303 299 298 295 289 300 299 295 294 292 288 292 293 292 292 294 295
322 322 323 324 324 323 323 323 322 321 322 323 323 323 323 321 319 318 315 306 304 301 300 299 297 295 296 294 296 293 294 295 291 290 288 285 289 288
325 324 322 321 321 322 323 323 322 322 323 322 322 322 322 320 319 316 312 306 305 303 300 296 294 294 293 292 292 294 292 293 297 295 296 288 287 287

GFSNE_sfc_thetae_009.txt.gz
Theta_e
336 336 335 341 338 337 342 336 336 323 319 322 322 326 326 326 327 327 326 325 324 321 321 322 323 323 323 326 327 327 328 328 328 326 326 325 324 324
334 335 336 333 338 339 342 341 339 330 320 323 322 323 325 326 326 324 324 324 322 321 321 320 320 320 322 323 324 325 328 326 324 324 322 321 320 320
334 333 334 336 339 339 338 337 334 329 319 321 323 325 323 322 323 323 325 325 324 321 321 319 318 319 320 322 324 325 323 320 320 319 317 317 316 314
333 333 332 334 336 337 334 333 331 327 321 318 321 322 322 323 323 325 326 328 326 323 320 318 317 318 319 318 317 315 314 314 314 314 315 314 313 311
333 334 334 335 334 334 332 330 329 326 323 320 320 323 322 322 324 325 326 327 329 322 317 315 315 315 314 313 312 310 308 307 307 308 309 310 309 308
333 335 334 335 335 333 331 328 325 323 322 322 321 321 322 324 324 321 320 323 323 324 321 319 317 313 312 311 310 308 305 303 303 303 303 303 303 303
333 332 332 326 324 329 329 329 325 323 322 321 320 320 320 321 319 320 318 321 322 323 321 321 319 316 311 310 309 307 304 303 302 302 302 301 300 299
329 328 328 326 318 314 318 320 323 323 321 320 320 318 319 321 322 317 317 317 315 326 322 320 320 315 312 311 305 304 303 302 302 301 300 299 299 298
333 332 328 326 325 327 313 313 314 313 318 323 320 320 320 325 323 320 323 323 321 327 326 317 319 314 311 306 303 302 301 301 301 300 299 298 297 296
334 333 330 331 329 329 328 328 326 325 324 324 322 323 324 325 329 328 329 331 328 326 327 314 318 311 310 307 302 301 300 299 299 299 299 298 298 298
333 333 333 331 309 310 330 325 322 319 313 312 314 312 310 312 323 329 326 323 319 320 326 318 317 312 309 305 304 301 300 299 299 298 298 298 297 296
334 332 310 323 305 308 331 326 321 321 324 323 326 314 319 323 312 337 330 323 321 320 328 320 319 314 309 310 305 303 302 300 299 299 299 298 296 304
328 329 326 300 304 309 316 327 325 326 320 329 330 331 333 330 328 331 334 332 325 325 327 326 320 317 319 311 310 310 311 306 305 301 298 298 297 296
327 329 318 300 301 308 318 303 305 316 331 330 329 329 327 323 327 332 339 333 334 336 330 333 322 320 318 313 308 309 309 311 309 308 307 302 298 297
331 312 300 299 298 304 301 303 306 329 328 326 324 325 326 328 335 336 335 332 330 329 327 327 325 328 320 314 309 307 306 308 308 307 306 305 304 304
311 320 315 311 303 312 312 313 329 330 329 328 328 328 331 332 331 331 325 322 319 316 319 319 321 322 316 310 308 305 305 304 307 306 304 304 304 304
326 328 327 328 327 322 323 326 328 329 329 329 326 326 327 328 326 326 322 319 315 312 310 311 316 315 309 308 304 304 304 304 304 304 302 302 302 302
326 326 325 326 326 325 324 324 325 321 326 325 325 324 322 322 322 322 321 318 316 312 308 309 308 305 303 302 298 303 303 302 301 301 302 298 298 302
327 327 326 327 326 326 326 325 324 325 330 326 326 324 323 322 318 320 319 319 318 315 310 308 303 301 297 297 296 291 301 300 298 298 300 299 297 299
326 327 327 327 327 326 326 325 325 326 326 326 325 326 325 322 320 319 319 319 319 315 311 307 303 304 303 302 299 294 287 297 296 297 297 297 298 293
321 323 325 325 324 324 326 325 326 326 325 327 327 326 326 324 322 320 319 306 310 315 308 304 304 290 304 302 296 295 294 289 292 295 293 292 293 295
322 320 322 324 323 323 323 322 322 323 324 326 326 326 327 326 323 321 320 318 316 311 304 302 302 302 299 294 295 297 294 294 291 291 289 288 290 288
324 323 323 323 324 326 326 325 324 323 323 324 324 326 327 324 326 324 322 320 313 307 303 297 297 296 293 293 294 297 295 295 297 293 295 290 289 290

GFSNE_sfc_thetae_012.txt.gz
Theta_e
331 331 329 331 330 331 329 328 321 317 316 321 322 326 328 329 330 327 326 325 324 322 322 322 324 325 325 326 326 326 326 327 328 328 328 326 325 324
333 332 330 331 331 332 331 329 327 321 315 321 321 324 326 325 326 324 325 325 323 322 323 320 319 319 321 322 322 325 324 324 323 323 323 322 321 320
332 330 332 331 330 329 329 329 328 322 316 319 322 322 322 322 323 324 326 325 322 320 320 318 316 315 319 317 316 316 321 321 319 319 319 318 316 315
331 330 330 332 329 330 329 327 323 322 319 316 318 320 320 321 323 323 325 326 323 321 318 317 317 316 317 316 316 316 314 314 314 315 314 314 313 311
331 331 328 328 328 329 327 324 323 322 321 318 317 320 320 323 323 323 322 324 325 321 317 316 315 315 314 313 311 310 308 307 307 308 309 310 309 307
329 329 330 329 329 327 326 325 323 321 322 319 318 318 320 322 323 320 319 323 322 325 321 317 315 313 311 310 310 308 305 303 303 303 303 302 302 303
326 327 325 327 325 324 325 323 322 322 320 318 317 318 319 319 318 319 318 319 318 321 317 315 312 308 308 309 308 306 304 303 302 301 301 300 299 300
324 328 327 321 319 315 317 316 321 322 320 320 319 318 318 317 318 315 316 313 312 318 314 312 310 306 305 305 305 303 302 302 301 300 299 298 298 298
327 326 326 325 324 322 311 312 312 311 317 322 320 319 318 317 315 314 313 314 313 317 315 309 309 306 304 304 303 302 301 300 300 300 299 298 297 296
329 327 327 328 325 325 325 323 322 323 323 324 323 322 323 320 319 318 320 320 320 321 315 307 307 303 304 301 302 301 299 299 299 299 298 297 297 298
330 330 329 326 308 310 324 321 320 319 312 310 312 311 310 312 318 322 320 318 315 315 317 311 307 303 301 300 299 301 299 299 299 298 297 296 296 296
329 323 309 319 306 310 324 321 319 320 321 321 320 318 315 317 309 324 323 316 315 312 318 312 307 306 300 301 299 297 296 299 299 298 298 297 297 297
326 323 315 303 303 306 313 323 320 321 315 321 321 324 325 326 326 327 327 322 318 317 321 317 309 308 309 302 300 299 299 299 295 296 297 298 297 295
326 324 310 303 304 306 316 303 304 314 323 322 321 322 323 324 324 326 330 328 330 326 324 323 315 311 311 305 302 303 304 305 301 302 298 298 297 296
327 309 298 299 299 306 302 303 306 325 325 324 322 322 325 321 322 329 328 325 325 324 326 322 320 316 315 310 304 302 301 304 303 302 302 297 295 294
309 312 310 310 310 312 310 310 327 328 326 325 325 326 325 322 327 328 321 321 315 312 312 313 312 314 308 306 305 301 302 300 303 302 299 299 301 299
322 324 325 321 321 322 324 324 326 327 324 324 323 322 324 326 326 326 321 317 311 308 306 308 307 302 298 304 302 300 300 301 302 299 297 296 297 298
323 323 324 324 319 321 322 322 325 323 325 324 325 324 325 325 324 323 319 315 311 309 306 305 303 300 300 298 299 300 300 299 299 298 298 295 294 293
326 325 324 325 324 322 322 323 322 323 326 324 322 322 322 322 314 319 318 315 313 309 306 305 303 299 295 295 294 292 297 296 296 293 296 296 293 294
326 326 325 325 326 325 324 323 323 323 323 324 324 322 321 320 318 317 317 315 314 309 304 304 302 299 296 295 296 290 289 295 293 294 293 292 289 290
323 325 327 327 326 326 326 325 324 323 322 322 324 323 322 320 319 318 316 306 308 309 305 302 300 294 300 298 292 290 289 290 291 291 290 288 289 290
321 322 323 325 325 325 325 325 324 320 321 323 322 324 323 322 319 318 317 314 313 313 304 299 301 300 296 292 290 291 290 290 291 291 291 291 287 284
321 320 319 320 322 323 322 321 320 320 321 322 322 322 323 322 322 321 318 316 314 305 299 297 296 294 291 293 291 291 291 291 292 289 290 290 291 292